Weather History for Sarasota, FL

Change the Weather History Date:

Sunday, June 2, 2013

  Actual Average Record
Temperature  
Mean Temperature 81 °F 79 °F  
Max Temperature 88 °F 88 °F 97 °F (1971)
Min Temperature 73 °F 71 °F 58 °F (1984)
Degree Days  
Heating Degree Days 0 0  
Month to date heating degree days 0 0  
Since 1 June heating degree days 0 0  
Since 1 July heating degree days 397 477  
Cooling Degree Days 16 14  
Month to date cooling degree days 31 28  
Year to date cooling degree days 899 779  
Since 1 June cooling degree days 31 28  
Growing Degree Days 30 (Base 50)    
Moisture  
Dew Point 73 °F    
Average Humidity 85    
Maximum Humidity 94    
Minimum Humidity 61    
Precipitation  
Precipitation 0.00 in 0.16 in 1.45 in (1999)
Month to date precipitation 0.38 0.31  
Year to date precipitation 8.52 14.01  
Sea Level Pressure  
Sea Level Pressure 29.96 in    
Wind  
Wind Speed 7 mph (SE)    
Max Wind Speed 15 mph    
Max Gust Speed 18 mph    
Visibility 9 miles    
Events Fog    
T = Trace of Precipitation, MM = Missing Value Source: NWS Daily Summary

Daily Weather History Graph

Daily Weather History Graph

Search for Another Location

Airport:

Trip Planner

Search our weather history database for the weather conditions in past years. The results will help you decide how hot, cold, wet, or windy it might be!

Date:

Astronomy

Jun. 02, 2013 Rise Set
Actual Time 6:35 AM EDT 8:21 PM EDT
Civil Twilight 6:08 AM EDT 8:47 PM EDT
Nautical Twilight 5:37 AM EDT 9:19 PM EDT
Astronomical Twilight 5:04 AM EDT 9:52 PM EDT
Moon 2:33 AM EDT (6/2) 3:15 PM EDT (6/2)
Length of Visible Light 14h 38m
Length of Day
13h 46m
Waning Crescent, 31% of the Moon is Illuminated
Jun 2
Waning Crescent
Jun 8
New
Jun 16
First Quarter
Jun 23
Full
Jun 30
Last Quarter

Hourly Weather History & Observations

Time (EDT) Temp. Heat Index Dew Point Humidity Pressure Visibility Wind Dir Wind Speed Gust Speed Precip Events Conditions
12:53 AM 73.9 °F - 72.0 °F 93% 29.99 in 10.0 mi East 5.8 mph - 0.00 in   Clear
1:12 AM 73.4 °F - 73.4 °F 100% 29.99 in 10.0 mi NNE 4.6 mph - N/A   Partly Cloudy
1:38 AM 73.4 °F - 71.6 °F 94% 29.99 in 10.0 mi ENE 4.6 mph - N/A   Mostly Cloudy
1:53 AM 73.9 °F - 72.0 °F 93% 29.99 in 10.0 mi ENE 8.1 mph - N/A   Mostly Cloudy
2:34 AM 73.4 °F - 71.6 °F 94% 29.98 in 10.0 mi East 4.6 mph - N/A   Overcast
2:50 AM 73.4 °F - 71.6 °F 94% 29.97 in 10.0 mi ENE 4.6 mph - N/A   Overcast
2:53 AM 73.9 °F - 72.0 °F 93% 29.97 in 10.0 mi East 4.6 mph - N/A   Overcast
3:53 AM 73.9 °F - 72.0 °F 93% 29.94 in 10.0 mi NW 4.6 mph - N/A   Mostly Cloudy
4:32 AM 73.4 °F - 71.6 °F 94% 29.95 in 10.0 mi SE 6.9 mph - N/A   Scattered Clouds
4:53 AM 73.0 °F - 72.0 °F 96% 29.94 in 10.0 mi East 5.8 mph - N/A   Partly Cloudy
5:19 AM 73.4 °F - 71.6 °F 94% 29.94 in 10.0 mi East 5.8 mph - N/A   Mostly Cloudy
5:33 AM 73.4 °F - 71.6 °F 94% 29.94 in 10.0 mi East 3.5 mph - N/A   Mostly Cloudy
5:53 AM 73.0 °F - 72.0 °F 96% 29.94 in 10.0 mi ENE 4.6 mph - N/A   Overcast
6:35 AM 73.4 °F - 71.6 °F 94% 29.95 in 1.8 mi East 4.6 mph - N/A   Overcast
6:45 AM 73.4 °F - 71.6 °F 94% 29.95 in 0.5 mi ESE 4.6 mph - N/A Fog Fog
6:53 AM 73.0 °F - 72.0 °F 96% 29.96 in 0.2 mi East 3.5 mph - N/A Fog Fog
7:53 AM 73.0 °F - 72.0 °F 96% 29.99 in 0.5 mi SE 5.8 mph - N/A Fog Fog
8:11 AM 73.4 °F - 73.4 °F 100% 29.99 in 2.0 mi ESE 5.8 mph - N/A   Overcast
8:20 AM 73.4 °F - 73.4 °F 100% 29.99 in 6.0 mi ESE 6.9 mph - N/A   Overcast
8:48 AM 75.2 °F - 73.4 °F 94% 29.99 in 10.0 mi ESE 6.9 mph - N/A   Scattered Clouds
8:53 AM 75.0 °F - 73.0 °F 94% 29.99 in 10.0 mi SE 6.9 mph - N/A   Scattered Clouds
9:53 AM 81.0 °F 85.8 °F 73.0 °F 77% 29.98 in 10.0 mi Calm Calm - N/A   Clear
10:53 AM 82.9 °F 88.8 °F 73.0 °F 72% 29.97 in 10.0 mi SW 5.8 mph - N/A   Clear
11:53 AM 86.0 °F 92.2 °F 72.0 °F 63% 29.96 in 10.0 mi SSW 9.2 mph - N/A   Scattered Clouds
12:53 PM 86.0 °F 93.8 °F 73.9 °F 67% 29.96 in 10.0 mi SW 11.5 mph - N/A   Clear
1:53 PM 86.0 °F 93.8 °F 73.9 °F 67% 29.95 in 10.0 mi SW 10.4 mph - N/A   Clear
2:53 PM 87.1 °F 95.4 °F 73.9 °F 65% 29.95 in 10.0 mi SW 11.5 mph - N/A   Clear
3:53 PM 84.9 °F 92.1 °F 73.9 °F 69% 29.94 in 10.0 mi SW 10.4 mph - N/A   Partly Cloudy
4:53 PM 84.9 °F 92.1 °F 73.9 °F 69% 29.93 in 10.0 mi WSW 12.7 mph - N/A   Clear
5:53 PM 84.9 °F 92.1 °F 73.9 °F 69% 29.91 in 10.0 mi SW 9.2 mph - N/A   Partly Cloudy
6:53 PM 84.0 °F 90.2 °F 73.0 °F 69% 29.91 in 10.0 mi SSW 10.4 mph - N/A   Partly Cloudy
7:53 PM 82.0 °F 87.4 °F 73.0 °F 74% 29.92 in 10.0 mi SW 6.9 mph - N/A   Partly Cloudy
8:53 PM 81.0 °F 86.2 °F 73.9 °F 79% 29.94 in 10.0 mi SSW 6.9 mph - N/A   Scattered Clouds
9:53 PM 81.0 °F 86.2 °F 73.9 °F 79% 29.95 in 10.0 mi South 5.8 mph - N/A   Scattered Clouds
10:53 PM 81.0 °F 86.7 °F 75.0 °F 82% 29.96 in 10.0 mi SSW 9.2 mph - N/A   Partly Cloudy
11:53 PM 80.1 °F 84.5 °F 73.9 °F 81% 29.96 in 10.0 mi SSW 5.8 mph - N/A   Partly Cloudy